Location: Isola Pescaroli
(45.0500°N, 10.1667°E)
Time: 19:17:04
(UTC+00:00)

COSMOS 2428 - Pass Details

Date: 03 March 2021
Orbit: 845 x 858 km, 70.9° (Epoch: 19 April)

Event Time Altitude Azimuth Distance (km) Brightness Sun altitude
Rises 19:16:09 0° 194° (SSW) 3,390 5.8 -23.0°
Reaches altitude 10° 19:18:36 10° 191° (S) 2,459 5.1 -23.4°
Maximum altitude 19:24:10 64° 111° (ESE) 937 2.6 -24.4°
Enters shadow 19:24:44 60° 81° (E) 966 2.6 -24.5°
Exits shadow 19:32:03 - 29° (NNE) 3,340 5.7 -25.7°
Sets 19:32:16 0° 29° (NNE) 3,422 5.8 -25.7°
